sat.trackr.live / text

‹ back to catalog

STARLINK-34953

NORAD 65240 · 2025-179F

PAYLOAD ACTIVE UNKNOWN

§ Identity

Operator
Country
US
Launch date
2025-08-18
Launch site
AFWTR
Launch vehicle
Mass (kg)
RCS (m²)

Purposes: comms

External: N2YO · Heavens-Above · Gunter

§ Orbital elements

Epoch: 2026-09-20T07:19:02.453664Z

Period
93.91 min
Inclination
97.2856°
Eccentricity
0.0001646
Mean motion
15.33457350 rev/d
Perigee alt
464.4 km
Apogee alt
466.6 km
Semi-major
6,843.6 km
B*
4.5116e-4
RAAN
302.6386°
Arg perigee
98.9244°
Mean anomaly
261.2186°
Rev number
6,144

§ Raw data

STARLINK-349531 65240U 25179F   26263.30488951  .00014524  00000+0  45116-3 0  99932 65240  97.2856 302.6386 0001646  98.9244 261.2186 15.33457350 61444

JSON: /api/v1/satellites/65240 · /tle

For live sub-satellite position, see the globe view (requires WebGL).

§ Visibility from observer

Set your observer location to see the next 7 days of passes ≥ 10°. The values pass through the URL so the page stays shareable.

No JS? Fill the form by hand. The geolocation button needs JavaScript.